Millbury, Ohio, United States (43447)
Lat: 41.57N, Lon: 83.42W
Wx Zone: OHZ006
Local Info
Past Weather Observations for Today

NOTE: This archive is for the closest National Weather Service station to Millbury. Information may differ from the station used for current weather conditions.

Click here for Long-term Archive

Time Weather Temperature Dewpoint Humidity Pressure Winds Precip Visibility
22:53
Clear
73°F / 23°C 70°F / 21°C 89% 30.01 in
(1016 mb)
SW 4.6 mph
(SW 7 kph)
- 9SM
21:53
Clear
75°F / 24°C 70°F / 21°C 83% 30.01 in
(1016 mb)
Calm - 9SM
20:53
Clear
Hazy
75°F / 24°C 70°F / 21°C 83% 30.01 in
(1016 mb)
Calm - 6SM
19:53
Clear
79°F / 26°C 72°F / 22°C 79% 30.01 in
(1016 mb)
Calm - 10SM
18:53
Partly Cloudy
81°F / 27°C 72°F / 22°C 74% 29.98 in
(1015 mb)
Calm - 10SM
17:53
Clear
82°F / 28°C 70°F / 21°C 66% 29.98 in
(1015 mb)
SW 6.9 mph
(SW 11 kph)
- 10SM
16:53
Clear
84°F / 29°C 66°F / 19°C 55% 29.98 in
(1015 mb)
SW 11.5 mph
(SW 19 kph)
- 10SM
15:53
Partly Cloudy
77°F / 25°C 64°F / 18°C 65% 30.01 in
(1016 mb)
SW 8.1 mph
(SW 13 kph)
- 10SM
15:39
Partly Cloudy
77°F / 25°C 64°F / 18°C 65% 30.01 in
(1016 mb)
SSW 15 mph
(SSW 24 kph)
- 10SM
14:53
Partly Cloudy
Thunder Storms
86°F / 30°C 70°F / 21°C 59% 30.01 in
(1016 mb)
SSW 6.9 mph
(SSW 11 kph)
- 10SM
14:51
Partly Cloudy
Thunder Storms
86°F / 30°C 70°F / 21°C 59% 30.01 in
(1016 mb)
SSW 8.1 mph
(SSW 13 kph)
- 10SM
13:53
Clear
86°F / 30°C 72°F / 22°C 62% 30.04 in
(1017 mb)
SW 8.1 mph
(SW 13 kph)
- 10SM
12:53
Partly Cloudy
82°F / 28°C 72°F / 22°C 70% 30.06 in
(1018 mb)
SSE 8.1 mph
(SSE 13 kph)
- 10SM
11:53
Partly Cloudy
79°F / 26°C 72°F / 22°C 79% 30.06 in
(1018 mb)
SW 6.9 mph
(SW 11 kph)
0.01 in
(0.25 mm)
10SM
11:06
Mostly Cloudy
Light Rain
72°F / 22°C 70°F / 21°C 94% 30.09 in
(1019 mb)
S 5.8 mph
(S 9 kph)
0.01 in
(0.25 mm)
10SM
10:53
Mostly Cloudy
Thunder Storms
73°F / 23°C 68°F / 20°C 83% 30.09 in
(1019 mb)
S 5.8 mph
(S 9 kph)
0.67 in
(17.02 mm)
8SM
10:43
Mostly Cloudy
Thunder Storms
72°F / 22°C 70°F / 21°C 94% 30.09 in
(1019 mb)
SSE 9.2 mph
(SSE 15 kph)
0.67 in
(17.02 mm)
7SM
10:31
Overcast
Thunder Storms
73°F / 23°C 68°F / 20°C 83% 30.12 in
(1020 mb)
S 8.1 mph
(S 13 kph)
0.66 in
(16.76 mm)
1 3/4SM
10:23
Overcast
Thunder Storms
72°F / 22°C 68°F / 20°C 88% 30.12 in
(1020 mb)
S 8.1 mph
(S 13 kph)
0.65 in
(16.51 mm)
2SM
10:19
Overcast
Thunder Storms
72°F / 22°C 68°F / 20°C 88% 30.12 in
(1020 mb)
SE 5.8 mph
(SE 9 kph)
0.64 in
(16.26 mm)
1SM
10:07
Overcast
Thunder Storms
73°F / 23°C 70°F / 21°C 89% 30.12 in
(1020 mb)
N 12.7 mph
(N 20 kph)
0.33 in
(8.38 mm)
3/4SM
10:04
Overcast
Thunder Storms
75°F / 24°C 70°F / 21°C 83% 30.12 in
(1020 mb)
NNW 16.1 mph
(NNW 26 kph)
0.18 in
(4.57 mm)
1 1/2SM
10:01
Overcast
Thunder Storms
75°F / 24°C 68°F / 20°C 78% 30.12 in
(1020 mb)
NNW 12.7 mph
(NNW 20 kph)
0.06 in
(1.52 mm)
4SM
09:53
Overcast
Thunder Storms
77°F / 25°C 68°F / 20°C 74% 30.12 in
(1020 mb)
WNW 8.1 mph
(WNW 13 kph)
- 10SM
09:42
Mostly Cloudy
Thunder Storms
79°F / 26°C 70°F / 21°C 74% 30.09 in
(1019 mb)
SSW 10.4 mph
(SSW 17 kph)
- 10SM
08:53
Clear
77°F / 25°C 68°F / 20°C 74% 30.09 in
(1019 mb)
SW 8.1 mph
(SW 13 kph)
- 10SM
07:53
Clear
73°F / 23°C 66°F / 19°C 78% 30.09 in
(1019 mb)
SW 8.1 mph
(SW 13 kph)
- 8SM
06:53
Clear
Hazy
70°F / 21°C 64°F / 18°C 83% 30.09 in
(1019 mb)
SW 4.6 mph
(SW 7 kph)
- 6SM
05:53
Clear
70°F / 21°C 64°F / 18°C 83% 30.09 in
(1019 mb)
SW 5.8 mph
(SW 9 kph)
- 8SM
04:53
Partly Cloudy
70°F / 21°C 64°F / 18°C 83% 30.06 in
(1018 mb)
SW 6.9 mph
(SW 11 kph)
- 8SM
03:53
Clear
70°F / 21°C 64°F / 18°C 83% 30.06 in
(1018 mb)
SW 4.6 mph
(SW 7 kph)
- 9SM
02:53
Clear
70°F / 21°C 64°F / 18°C 83% 30.06 in
(1018 mb)
SW 5.8 mph
(SW 9 kph)
- 10SM
01:53
Clear
72°F / 22°C 64°F / 18°C 78% 30.06 in
(1018 mb)
SSW 4.6 mph
(SSW 7 kph)
- 10SM
00:53
Clear
72°F / 22°C 66°F / 19°C 83% 30.09 in
(1019 mb)
SW 4.6 mph
(SW 7 kph)
- 10SM
Time Weather Temperature Dewpoint Humidity Pressure Winds Precip Visibility


Weather for websites

WeatherForYou.com, LLC is not responsible for any damages or problems caused by this service. Current weather conditions are obtained from the closest station including government and personal stations which may have varying degrees of accuracy. Weather forecasts are derived from the NOAA NDFD. Like all things, this site belongs to Jesus Christ... He just trusts us to maintain it. If you have any questions or comments email webmaster@weatherforyou.com

Copyright © 2015, WeatherForYou.com LLC. All rights reserved.